Location: Unspecified
(0.0000°N, 0.0000°E)
Time: 16:20:59
(UTC+00:00)

CHUBUSAT 2 - Pass Details

Date: 18 June 2023
Orbit: 544 x 560 km, 31.0° (Epoch: 20 September)

Event Time Altitude Azimuth Distance (km) Brightness Sun altitude
Rises 18:49:49 0° 218° (SW) 2,739 ? -11.1°
Reaches altitude 10° 18:52:24 10° 205° (SSW) 1,846 ? -11.7°
Maximum altitude 18:55:59 26° 148° (SSE) 1,132 ? -12.5°
Enters shadow 18:57:41 20° 112° (ESE) 1,328 ? -12.9°
